Search for airport 
image banner adimage banner adimage banner ad
image banner ad

4CL5 - Mercy San Juan Hospital

Located in Carmichael, United States

ICAO - 4CL5, IATA -

Data provided by Airmate  

General information

Coordinates: N38°40'9" W121°18'52"
Elevation is 169 feet MSL.
Magnetic variation is 16° East
View others Airports in California

Operational data

Special qualification required
Current time UTC:
Current local time:
Weather at : KMCC - Mc Clellan Airfield ( 7 km )
METAR: KMCC 191135Z AUTO 00000KT 10SM BKN032 BKN039 06/04 A3001 RMK AO2
TAF: KMCC 190605Z 1906/2006 VRB05KT P6SM SKC FM191200 17006KT P6SM FEW250 TEMPO 1912/1916 4SM HZ FM200400 19012KT P6SM BKN250
View NOTAMs / SUP AIP / TFR affecting this airport [VIEW]
Communications frequencies: [VIEW]

Runways:

Airport contact information

Address: Carmichael United States

Satellite view of 4CL5